Weather History for Quincy, IL

Change the Weather History Date:

Wednesday, January 15, 2014

  Actual Average Record
Temperature  
Mean Temperature 23 °F 26 °F  
Max Temperature 26 °F 34 °F 65 °F (1949)
Min Temperature 21 °F 18 °F -16 °F (1972)
Degree Days  
Heating Degree Days 42 39  
Month to date heating degree days 593 581  
Since 1 July heating degree days 2909 2772  
Moisture  
Dew Point 11 °F    
Average Humidity 63    
Maximum Humidity 68    
Minimum Humidity 57    
Precipitation  
Precipitation 0.00 in 0.05 in 0.64 in (1969)
Month to date precipitation 0.60 0.77  
Year to date precipitation 0.60 0.77  
Sea Level Pressure  
Sea Level Pressure 30.10 in    
Wind  
Wind Speed 13 mph (WNW)    
Max Wind Speed 23 mph    
Max Gust Speed 31 mph    
Visibility 10 miles    
Events      
T = Trace of Precipitation, MM = Missing Value Source: NWS Daily Summary

Daily Weather History Graph

Daily Weather History Graph

Search for Another Location

Airport:

Trip Planner

Search our weather history database for the weather conditions in past years. The results will help you decide how hot, cold, wet, or windy it might be!

Date:

Astronomy

Jan. 15, 2014 Rise Set
Actual Time 7:24 AM CST 5:04 PM CST
Civil Twilight 6:54 AM CST 5:33 PM CST
Nautical Twilight 6:21 AM CST 6:07 PM CST
Astronomical Twilight 5:49 AM CST 6:39 PM CST
Moon 5:02 PM CST (1/15) 6:40 AM CST (1/15)
Length of Visible Light 10h 39m
Length of Day
9h 39m
Full, 100% of the Moon is Illuminated
Jan 15
Full
Jan 15
Full
Jan 23
Last Quarter
Jan 30
New
Feb 6
First Quarter

Hourly Weather History & Observations

Time (CST) Temp. Windchill Dew Point Humidity Pressure Visibility Wind Dir Wind Speed Gust Speed Precip Events Conditions
12:40 AM - - - N/A% 30.09 in 10.0 mi NW 19.6 mph 25.3 mph N/A   Overcast
12:54 AM - - - N/A% 30.09 in 10.0 mi NW 23.0 mph 31.1 mph N/A   Overcast
1:11 AM - - - N/A% 30.09 in 10.0 mi NW 23.0 mph - N/A   Scattered Clouds
1:54 AM - - - N/A% 30.10 in 10.0 mi NW 13.8 mph 27.6 mph N/A   Partly Cloudy
2:54 AM - - - N/A% 30.11 in 10.0 mi NW 19.6 mph - N/A   Scattered Clouds
3:28 AM - - - N/A% 30.12 in 10.0 mi NNW 15.0 mph - N/A   Mostly Cloudy
3:54 AM - - - N/A% 30.12 in 10.0 mi NNW 13.8 mph - N/A   Overcast
4:54 AM - - - N/A% 30.13 in 10.0 mi WNW 16.1 mph - N/A   Overcast
5:31 AM - - - N/A% 30.13 in 10.0 mi NW 15.0 mph - N/A   Scattered Clouds
5:52 AM - - - N/A% 30.14 in 10.0 mi NW 15.0 mph - N/A   Mostly Cloudy
5:54 AM - - - N/A% 30.14 in 10.0 mi NW 16.1 mph - N/A   Mostly Cloudy
6:42 AM - - - N/A% 30.15 in 10.0 mi NNW 16.1 mph - N/A   Scattered Clouds
6:54 AM - - - N/A% 30.16 in 10.0 mi NW 12.7 mph - N/A   Mostly Cloudy
7:54 AM - - - N/A% 30.18 in 10.0 mi NNW 13.8 mph - N/A   Mostly Cloudy
8:54 AM - - - N/A% 30.19 in 10.0 mi NW 15.0 mph - N/A   Overcast
9:17 AM - - - N/A% 30.19 in 10.0 mi NW 15.0 mph - N/A   Scattered Clouds
9:24 AM - - - N/A% 30.19 in 10.0 mi NW 16.1 mph - N/A   Mostly Cloudy
9:32 AM - - - N/A% 30.19 in 10.0 mi NNW 13.8 mph - N/A   Scattered Clouds
9:50 AM - - - N/A% 30.20 in 10.0 mi NW 12.7 mph - N/A   Mostly Cloudy
9:54 AM - - - N/A% 30.20 in 10.0 mi WNW 15.0 mph - N/A   Mostly Cloudy
10:54 AM - - - N/A% 30.20 in - North - - N/A   Scattered Clouds
11:54 AM - - - N/A% 30.16 in 10.0 mi NW 10.4 mph - N/A   Partly Cloudy
12:54 PM 21.9 °F 10.4 °F 8.1 °F 55% 30.14 in 10.0 mi WNW 11.5 mph - N/A   Partly Cloudy
1:40 PM 23.0 °F 10.6 °F 9.0 °F 55% 30.12 in 10.0 mi WSW 13.8 mph - N/A   Mostly Cloudy
1:52 PM 21.2 °F 8.3 °F 8.6 °F 58% 30.11 in 10.0 mi West 13.8 mph - N/A   Scattered Clouds
1:54 PM 21.9 °F 11.0 °F 9.0 °F 58% 30.11 in 10.0 mi West 10.4 mph - N/A   Scattered Clouds
2:54 PM 23.0 °F 12.4 °F 10.0 °F 58% 30.11 in 10.0 mi West 10.4 mph - N/A   Mostly Cloudy
3:32 PM 23.0 °F 11.7 °F 10.0 °F 58% 30.10 in 10.0 mi West 11.5 mph - N/A   Scattered Clouds
3:54 PM 23.0 °F 11.1 °F 10.0 °F 58% 30.09 in 10.0 mi WSW 12.7 mph - N/A   Scattered Clouds
4:54 PM 21.9 °F 12.5 °F 10.9 °F 63% 30.06 in 10.0 mi SW 8.1 mph - N/A   Clear
5:54 PM 21.9 °F 11.7 °F 12.0 °F 66% 30.04 in 10.0 mi South 9.2 mph - N/A   Clear
6:54 PM 21.9 °F 12.5 °F 12.0 °F 66% 30.01 in 10.0 mi South 8.1 mph - N/A   Clear
7:54 PM 21.9 °F 12.5 °F 12.9 °F 68% 30.00 in 10.0 mi South 8.1 mph - N/A   Mostly Cloudy
8:54 PM 23.0 °F 11.7 °F 14.0 °F 68% 29.95 in 10.0 mi South 11.5 mph - N/A   Overcast
9:54 PM 24.1 °F 11.5 °F 14.0 °F 65% 29.91 in 10.0 mi South 15.0 mph - N/A   Overcast
10:54 PM 25.0 °F 13.1 °F 14.0 °F 63% 29.89 in 10.0 mi South 13.8 mph - N/A   Overcast
11:54 PM 26.1 °F 16.8 °F 14.0 °F 60% 29.86 in 10.0 mi South 9.2 mph - N/A   Overcast